WetterOnline ( https://www.wetteronline.ch )

Wetter aktuell Altenstadt

Aktuelles Wetter: Weiden (439m)

6-stündlich | Neueste Meldungen
Ortszeit Temperatur Wetter
Mo, 13.07. 8:00 12.2° C fast wolkenlos
Mo, 13.07. 2:00 11.1° C leicht bewölkt
So, 12.07. 20:00 18.7° C bewölkt
So, 12.07. 14:00 20.1° C leicht bewölkt
So, 12.07. 8:00 11.0° C wolkenlos
So, 12.07. 2:00 9.9° C wolkig
Sa, 11.07. 20:00 18.4° C wolkenlos
Sa, 11.07. 14:00 16.7° C bedeckt
Ortszeit Temperatur Wetter
Mo, 13.07. 9:00 15.1° C leicht bewölkt
Mo, 13.07. 8:50 15.1° C wolkig
Mo, 13.07. 8:40 14.4° C leicht bewölkt
Mo, 13.07. 8:30 13.2° C fast wolkenlos
Mo, 13.07. 8:20 13.2° C fast wolkenlos
Mo, 13.07. 8:10 13.3° C fast wolkenlos
Mo, 13.07. 8:00 12.2° C fast wolkenlos
Mo, 13.07. 7:30 11.1° C wolkenlos
Mo, 13.07. 7:00 10.1° C leicht bewölkt
Mo, 13.07. 6:30 9.2° C wolkig
Mo, 13.07. 6:00 8.4° C wolkig
Ortszeit Relative Feuchte Sichtweite
Mo, 13.07. 8:00 67% 50 km
Mo, 13.07. 2:00 75% 55 km
So, 12.07. 20:00 47% 50 km
So, 12.07. 14:00 34% 50 km
So, 12.07. 8:00 73% 35 km
So, 12.07. 2:00 92% 30 km
Sa, 11.07. 20:00 42% >70 km
Sa, 11.07. 14:00 61% 35 km
Ortszeit Relative Feuchte Sichtweite
Mo, 13.07. 9:00 60% 35 km
Mo, 13.07. 8:50 60% -
Mo, 13.07. 8:40 64% -
Mo, 13.07. 8:30 64% 45 km
Mo, 13.07. 8:20 64% -
Mo, 13.07. 8:10 66% -
Mo, 13.07. 8:00 67% 50 km
Mo, 13.07. 7:30 69% 55 km
Mo, 13.07. 7:00 71% 40 km
Mo, 13.07. 6:30 79% 45 km
Mo, 13.07. 6:00 83% 50 km
Ortszeit Niederschlagsmenge Niederschlagsart
Mo, 13.07. 8:00 0.0 l/m2 in 12 Std. -
Mo, 13.07. 2:00 0.0 l/m2 in 6 Std. -
So, 12.07. 20:00 0.0 l/m2 in 12 Std. -
So, 12.07. 14:00 0.0 l/m2 in 6 Std. -
So, 12.07. 8:00 0.0 l/m2 in 12 Std. -
So, 12.07. 2:00 0.0 l/m2 in 6 Std. -
Sa, 11.07. 20:00 0.1 l/m2 in 12 Std. Regen
Sa, 11.07. 14:00 0.1 l/m2 in 6 Std. Regen
Ortszeit Niederschlagsmenge Niederschlagsart
Mo, 13.07. 9:00 0.0 l/m2 in 1 Std. -
Mo, 13.07. 8:50 keine Meldung -
Mo, 13.07. 8:40 keine Meldung -
Mo, 13.07. 8:30 0.0 l/m2 in 1 Std. -
Mo, 13.07. 8:20 keine Meldung -
Mo, 13.07. 8:10 keine Meldung -
Mo, 13.07. 8:00 0.0 l/m2 in 1 Std. -
Mo, 13.07. 7:30 0.0 l/m2 in 1 Std. -
Mo, 13.07. 7:00 0.0 l/m2 in 1 Std. -
Mo, 13.07. 6:30 0.0 l/m2 in 1 Std. -
Mo, 13.07. 6:00 0.0 l/m2 in 1 Std. -
Ortszeit Stärke Spitze Richtung
km/h Bft. km/h Grad Sektor
Mo, 13.07. 8:00 2 1 9 40° NO
Mo, 13.07. 2:00 4 1 18 300° NW
So, 12.07. 20:00 7 2 22 60° NO
So, 12.07. 14:00 4 1 22 310° NW
So, 12.07. 8:00 4 1 7 320° NW
So, 12.07. 2:00 0 0 18 - -
Sa, 11.07. 20:00 11 2 26 340° N
Sa, 11.07. 14:00 9 2 22 350° N
Ortszeit Stärke Spitze Richtung
km/h Bft. km/h Grad Sektor
Mo, 13.07. 9:00 4 1 7 290° W
Mo, 13.07. 8:50 4 1 - 290° W
Mo, 13.07. 8:40 4 1 - 280° W
Mo, 13.07. 8:30 4 1 7 300° NW
Mo, 13.07. 8:20 4 1 - 300° NW
Mo, 13.07. 8:10 4 1 - 320° NW
Mo, 13.07. 8:00 2 1 6 40° NO
Mo, 13.07. 7:30 0 0 4 - -
Mo, 13.07. 7:00 0 0 7 - -
Mo, 13.07. 6:30 2 1 6 40° NO
Mo, 13.07. 6:00 2 1 6 350° N
Ortszeit Untergrenze Bedeckung Gattung
total tief tief mittel hoch
Mo, 13.07. 8:00 10500 m 1/8 0/8 - - -
Mo, 13.07. 2:00 9000 m 4/8 0/8 - - -
So, 12.07. 20:00 2700 m 7/8 7/8 - - -
So, 12.07. 14:00 2400 m 3/8 3/8 - - -
So, 12.07. 8:00 - 0/8 0/8 - - -
So, 12.07. 2:00 2400 m 5/8 5/8 - - -
Sa, 11.07. 20:00 - 0/8 0/8 - - -
Sa, 11.07. 14:00 1800 m 8/8 8/8 - - -
Ortszeit Bedeckungsgrad in Achtel und Wolkenuntergrenze
Mo, 13.07. 9:00 7(10500m)
Mo, 13.07. 8:50 7(10500m)
Mo, 13.07. 8:40 5(9000m) 5(10500m)
Mo, 13.07. 8:30 1(10500m)
Mo, 13.07. 8:20 1(10500m)
Mo, 13.07. 8:10 1(10500m)
Mo, 13.07. 8:00 1(10500m)
Mo, 13.07. 7:30 keine Wolken
Mo, 13.07. 7:00 3(9000m) 5(10500m)
Mo, 13.07. 6:30 8(9000m) 8(10500m)
Mo, 13.07. 6:00 8(9000m) 8(10500m)
Ortszeit Luftdruck NN (hPa) Tendenz (hPa in 3 Std.)
Mo, 13.07. 8:00 1026 - 0,1
Mo, 13.07. 2:00 1026 - 0,4
So, 12.07. 20:00 1025 - 0,1
So, 12.07. 14:00 1025 - 0,3
So, 12.07. 8:00 1027 + 1,2
So, 12.07. 2:00 1026 + 0,3
Sa, 11.07. 20:00 1023 + 0,6
Sa, 11.07. 14:00 1022 + 1,0
Ortszeit Luftdruck NN (hPa) Tendenz (hPa in 3 Std.)
Mo, 13.07. 9:00 1025 0,0
Mo, 13.07. 8:50 1025 keine Meldung
Mo, 13.07. 8:40 1025 keine Meldung
Mo, 13.07. 8:30 1025 0,0
Mo, 13.07. 8:20 1025 keine Meldung
Mo, 13.07. 8:10 1025 keine Meldung
Mo, 13.07. 8:00 1026 - 0,1
Mo, 13.07. 7:30 1026 - 0,3
Mo, 13.07. 7:00 1026 - 0,4
Mo, 13.07. 6:30 1026 - 0,6
Mo, 13.07. 6:00 1026 - 0,5
Ortszeit Schneehöhe (cm)
Mo, 13.07. 8:00 -
Mo, 13.07. 2:00 -
So, 12.07. 20:00 -
So, 12.07. 14:00 -
So, 12.07. 8:00 -
So, 12.07. 2:00 -
Sa, 11.07. 20:00 -
Sa, 11.07. 14:00 -
Ortszeit Schneehöhe (cm)
Mo, 13.07. 9:00 -
Mo, 13.07. 8:50 -
Mo, 13.07. 8:40 -
Mo, 13.07. 8:30 -
Mo, 13.07. 8:20 -
Mo, 13.07. 8:10 -
Mo, 13.07. 8:00 -
Mo, 13.07. 7:30 -
Mo, 13.07. 7:00 -
Mo, 13.07. 6:30 -
Mo, 13.07. 6:00 -
Link zu dieser Seite / Seite empfehlen

Das Wetter in ...